This demonstration page uses our WeatherBlox Daily Observations layout. Learn more.

Left ArrowRight Arrow

39.29038, -76.61219

Hourly Observations for March 29, 2018

Temp ( °F °C ) Dew Point ( °F °C ) Humidity (%) Winds ( mph kmh ) Pressure ( in mb ) Visibility ( mi km ) Precip ( " mm )
12:54 am 00:54 undefined 49 9.4 47 8.3 93 93 undefined N/A 30.01 1016 N/A 0.00 0.00
1:54 am 01:54 undefined 50 10 47 8.3 89 89 undefined N/A 30.01 1016 N/A 0.00 0.00
2:54 am 02:54 undefined 49 9.4 47 8.3 93 93 undefined N/A 30.01 1016 N/A 0.00 0.00
3:54 am 03:54 undefined 49 9.4 47 8.3 93 93 undefined N/A 29.99 1016 N/A 0.00 0.00
4:54 am 04:54 undefined 50 10 47 8.3 89 89 undefined N/A 30.00 1016 N/A 0.00 0.00
5:54 am 05:54 undefined 49 9.4 47 8.3 93 93 undefined N/A 29.99 1016 N/A 0.00 0.00
6:54 am 06:54 undefined 49 9.4 47 8.3 93 93 undefined N/A 29.97 1015 N/A 0.00 0.00
7:54 am 07:54 undefined 49 9.4 47 8.3 93 93 undefined N/A 30.02 1017 N/A 0.00 0.00
8:54 am 08:54 undefined 50 10 47 8.3 89 89 undefined N/A 30.02 1017 N/A 0.00 0.00
9:54 am 09:54 undefined 53 11.7 48 8.9 83 83 undefined N/A 30.02 1017 N/A 0.00 0.00
10:54 am 10:54 undefined 55 12.8 48 8.9 77 77 undefined N/A 30.04 1017 N/A 0.00 0.00
11:54 am 11:54 undefined 58 14.4 50 10 75 75 undefined N/A 30.01 1016 N/A 0.00 0.00
12:54 pm 12:54 undefined 61 16.1 51 10.6 70 70 undefined N/A 29.98 1015 N/A 0.00 0.00
1:54 pm 13:54 undefined 64 17.8 51 10.6 63 63 undefined N/A 29.94 1014 N/A 0.00 0.00
2:54 pm 14:54 undefined 64 17.8 52 11.1 65 65 undefined N/A 29.90 1013 N/A 0.00 0.00
3:54 pm 15:54 undefined 66 18.9 53 11.7 63 63 undefined N/A 29.88 1012 N/A 0.00 0.00
4:54 pm 16:54 undefined 69 20.6 54 12.2 59 59 undefined N/A 29.85 1011 N/A 0.00 0.00
5:54 pm 17:54 undefined 69 20.6 55 12.8 61 61 undefined N/A 29.80 1009 N/A 0.00 0.00
6:54 pm 18:54 undefined 68 20 56 13.3 65 65 undefined N/A 29.79 1009 N/A 0.00 0.00
7:54 pm 19:54 undefined 66 18.9 56 13.3 70 70 undefined N/A 29.77 1008 N/A 0.00 0.00
8:54 pm 20:54 undefined 65 18.3 55 12.8 70 70 undefined N/A 29.77 1008 N/A 0.00 0.00
9:54 pm 21:54 undefined 63 17.2 54 12.2 73 73 undefined N/A 29.76 1008 N/A 0.00 0.00
10:54 pm 22:54 undefined 65 18.3 54 12.2 68 68 undefined N/A 29.74 1007 N/A 0.00 0.00
11:54 pm 23:54 undefined 65 18.3 54 12.2 68 68 undefined N/A 29.74 1007 N/A 0.00 0.00

Powered by AerisWeather